Aeroporto :
LOGIN :

Iscrizione | Disclaimer

   EN    FR    IT 

 










Sommario :    VFR   VFR Marginale   IFR   IFR Intensivo   IFR Molto Intensivo
Visibilità : 
Base nubi : 
>= 8 km
>= 3000ft
5 / 8 km
1000 / 3000 ft
1500m / 5 km
500 / 1000 ft
800 / 1500m
200 / 500 ft
< 800m
< 200 ft
Simboli :   Temporali  Nebbia  Neve Forte  Precipitazioni Forti  Vento > 20 kt
SIGMETs :   Varie  Temporali  Ghiacco  Turbolenza  Onda orograficha  Ceneri Vulcaniche







- Altitudine del aeroporto : 11 ft
- Codice IATA : MJV


LELC - Murcia San Javier

ULTIMO METAR :
  • 220700Z 25005KT 9000 NSC 17/16 Q1019 NOSIG

METARs OBSOLETI :
  • 220630Z 26005KT 9000 NSC 17/16 Q1019 NOSIG
  • 220600Z 27005KT 9000 NSC 17/16 Q1019 NOSIG
  • 220530Z 26006KT 9000 NSC 17/17 Q1019 NOSIG
  • 220500Z 28004KT 9000 NSC 17/17 Q1018 NOSIG
  • 220430Z AUTO 30004KT 8000 NCD 17/16 Q1018

TAF TAF LELC
Valido dal 22 a 06 ore il 23 a 06 ore UTC


220500Z 2206/2306 25006KT 9999 FEW020 TX24/2214Z TN17/2206Z
BECMG 2210/2212 13010KT
BECMG 2217/2220 02005KT
Nessun NOTAM noto per questo aeroporto.



MetMap, La meteo Aeronautica in un colpo d'occhio ! - Copyright ORBIFLY Dicembre 2007 - Disclaimer

ORBIFLY MET'MAP TEAM :

Programmazione e sviluppo : Alexandra Zaïnal
Concezione e sviluppo : Baudouin d'Aumeries
Co-Programmazione e sviluppo : Marc-Olivier Méhu
Supporto tecnico e logistico : Manuel Goepfert
Aiuto per la traduzione : Arnaldo La Scala

Contatto : metmap@orbifly.com




FONTI E CREDITI :

   NOAA